EWG2X EDDK-EGPH

Flight info

Callsign EWG2X
Flight time 1h 23m
Altitude 24000
Route WIPUR1R WIPUR P64 SONEB/N0450F360 P64 TENLI L602 SPY DCT AMGOD DCT GODOS DCT AGPED
Aircraft A320/M-SDE3FGHIRWY/LB1

Departure

Time 2026-04-24 19:21
Airport Cologne Bonn Airport (EDDK)

Arrival

Time 2026-04-24 20:45
Airport Edinburgh Airport (EGPH)
Time Latitude Longitude Altitude Speed Heading
2026-04-24 18:54 50.87908 7.12492 232 ft 0 kts 288°
2026-04-24 19:10 50.87904 7.12511 232 ft 4 kts 288°
2026-04-24 19:11 50.87897 7.12547 234 ft 2 kts 288°
2026-04-24 19:11 50.87886 7.12582 235 ft 4 kts 321°
2026-04-24 19:11 50.87863 7.12596 233 ft 4 kts
2026-04-24 19:11 50.87839 7.12587 233 ft 1 kts 18°
2026-04-24 19:12 50.87838 7.12586 233 ft 0 kts 18°
2026-04-24 19:15 50.87839 7.12587 233 ft 1 kts 21°
2026-04-24 19:15 50.87832 7.12612 234 ft 4 kts 138°
2026-04-24 19:15 50.87792 7.12666 232 ft 8 kts 140°
2026-04-24 19:15 50.87726 7.12761 232 ft 17 kts 137°
2026-04-24 19:16 50.87489 7.13105 232 ft 26 kts 138°
2026-04-24 19:16 50.87352 7.13303 232 ft 27 kts 137°
2026-04-24 19:16 50.87210 7.13509 237 ft 28 kts 138°
2026-04-24 19:17 50.87070 7.13712 241 ft 27 kts 137°
2026-04-24 19:17 50.86934 7.13908 249 ft 25 kts 137°
2026-04-24 19:17 50.86819 7.14075 255 ft 16 kts 138°
2026-04-24 19:17 50.86731 7.14148 256 ft 12 kts 150°
2026-04-24 19:18 50.86665 7.14236 260 ft 15 kts 138°
2026-04-24 19:18 50.86569 7.14376 262 ft 23 kts 137°
2026-04-24 19:18 50.86456 7.14540 269 ft 20 kts 138°
2026-04-24 19:18 50.86359 7.14681 274 ft 19 kts 137°
2026-04-24 19:19 50.86247 7.14842 281 ft 24 kts 138°
2026-04-24 19:19 50.86116 7.15032 287 ft 26 kts 136°
2026-04-24 19:19 50.86046 7.15172 293 ft 14 kts 104°
2026-04-24 19:19 50.86070 7.15307 294 ft 14 kts 50°
2026-04-24 19:20 50.86177 7.15352 290 ft 17 kts 350°
2026-04-24 19:20 50.86296 7.15309 287 ft 17 kts 348°
2026-04-24 19:20 50.86377 7.15325 285 ft 7 kts
2026-04-24 19:20 50.86442 7.15235 282 ft 29 kts 317°
2026-04-24 19:21 50.86795 7.14724 266 ft 104 kts 318°
2026-04-24 19:21 50.87477 7.13736 283 ft 155 kts 317°
2026-04-24 19:21 50.88262 7.12610 1004 ft 151 kts 318°
2026-04-24 19:21 50.89049 7.11506 1709 ft 157 kts 328°
2026-04-24 19:22 50.89766 7.11150 1894 ft 173 kts
2026-04-24 19:22 50.91385 7.12065 2385 ft 199 kts 25°
2026-04-24 19:22 50.92666 7.13090 2892 ft 210 kts 25°
2026-04-24 19:22 50.93779 7.14607 3570 ft 221 kts 56°
2026-04-24 19:23 50.94525 7.16898 3992 ft 246 kts 62°
2026-04-24 19:23 50.95297 7.19417 4698 ft 259 kts 62°
2026-04-24 19:23 50.96139 7.21959 5608 ft 262 kts 53°
2026-04-24 19:23 50.97394 7.24047 6514 ft 263 kts 34°
2026-04-24 19:24 50.99021 7.25312 7357 ft 266 kts 16°
2026-04-24 19:24 51.00838 7.26148 8212 ft 271 kts 15°
2026-04-24 19:24 51.02650 7.26909 9041 ft 276 kts
2026-04-24 19:24 51.04577 7.26939 9861 ft 281 kts 351°
2026-04-24 19:25 51.06466 7.26029 10550 ft 291 kts 335°
2026-04-24 19:25 51.08246 7.24231 10819 ft 315 kts 324°
2026-04-24 19:25 51.10102 7.22124 11085 ft 337 kts 324°
2026-04-24 19:25 51.12033 7.19925 11678 ft 346 kts 324°
2026-04-24 19:26 51.13985 7.17707 12406 ft 350 kts 324°
2026-04-24 19:26 51.15980 7.15443 13160 ft 354 kts 324°
2026-04-24 19:26 51.17999 7.13157 13905 ft 358 kts 324°
2026-04-24 19:26 51.20038 7.10850 14590 ft 361 kts 324°
2026-04-24 19:27 51.22098 7.08515 15255 ft 364 kts 323°
2026-04-24 19:27 51.24164 7.06166 15921 ft 367 kts 323°
2026-04-24 19:27 51.26258 7.03783 16578 ft 370 kts 323°
2026-04-24 19:27 51.28369 7.01384 17235 ft 373 kts 323°
2026-04-24 19:28 51.30467 6.98997 17861 ft 376 kts 322°
2026-04-24 19:28 51.32615 6.96546 18490 ft 379 kts 322°
2026-04-24 19:28 51.34781 6.94070 19042 ft 382 kts 322°
2026-04-24 19:28 51.36955 6.91586 19586 ft 385 kts 322°
2026-04-24 19:29 51.41744 6.87711 20640 ft 397 kts 340°
2026-04-24 19:29 51.44474 6.86852 21152 ft 404 kts 350°
2026-04-24 19:29 51.47282 6.86360 21651 ft 407 kts 350°
2026-04-24 19:30 51.50108 6.85861 22153 ft 410 kts 350°
2026-04-24 19:30 51.52953 6.85354 22637 ft 413 kts 349°
2026-04-24 19:30 51.55820 6.84842 23125 ft 416 kts 349°
2026-04-24 19:30 51.58709 6.84323 23601 ft 419 kts 349°
2026-04-24 19:31 51.61607 6.83796 24017 ft 422 kts 349°
2026-04-24 19:31 51.64533 6.83262 24183 ft 423 kts 349°
2026-04-24 19:31 51.67455 6.82732 24223 ft 423 kts 349°
2026-04-24 19:31 51.70388 6.82203 24223 ft 422 kts 349°
2026-04-24 19:32 51.73306 6.81681 24242 ft 424 kts 349°
2026-04-24 19:32 51.76251 6.81153 24645 ft 426 kts 349°
2026-04-24 19:32 51.79201 6.80626 25063 ft 428 kts 349°
2026-04-24 19:32 51.82164 6.80093 25458 ft 430 kts 349°
2026-04-24 19:33 51.85144 6.79548 25847 ft 432 kts 349°
2026-04-24 19:33 51.88137 6.79001 26230 ft 434 kts 349°
2026-04-24 19:33 51.91147 6.78449 26605 ft 436 kts 349°
2026-04-24 19:33 51.94167 6.77893 26970 ft 439 kts 348°
2026-04-24 19:34 51.97160 6.76982 27333 ft 435 kts 339°
2026-04-24 19:34 51.99981 6.75278 27693 ft 432 kts 330°
2026-04-24 19:34 52.02569 6.72860 28041 ft 428 kts 321°
2026-04-24 19:34 52.04864 6.69814 28382 ft 425 kts 311°
2026-04-24 19:35 52.06807 6.66220 28714 ft 423 kts 303°
2026-04-24 19:35 52.08511 6.62327 29036 ft 424 kts 302°
2026-04-24 19:35 52.10218 6.58399 29369 ft 426 kts 302°
2026-04-24 19:35 52.11926 6.54456 29684 ft 428 kts 302°
2026-04-24 19:36 52.13646 6.50487 30001 ft 429 kts 302°
2026-04-24 19:36 52.15367 6.46523 30413 ft 429 kts 302°
2026-04-24 19:36 52.17086 6.42564 30801 ft 427 kts 301°
2026-04-24 19:36 52.18793 6.38621 31197 ft 425 kts 301°
2026-04-24 19:37 52.20492 6.34681 31576 ft 424 kts 301°
2026-04-24 19:37 52.22187 6.30742 31952 ft 423 kts 301°
2026-04-24 19:37 52.23843 6.26787 32328 ft 420 kts 297°
2026-04-24 19:37 52.25161 6.22569 32704 ft 416 kts 289°
2026-04-24 19:38 52.26139 6.18157 33074 ft 413 kts 287°
2026-04-24 19:38 52.27082 6.13778 33448 ft 412 kts 287°
2026-04-24 19:38 52.28035 6.09371 33825 ft 411 kts 287°
2026-04-24 19:38 52.28985 6.04976 34195 ft 410 kts 287°
2026-04-24 19:39 52.29933 6.00588 34530 ft 409 kts 287°
2026-04-24 19:39 52.30881 5.96204 34844 ft 409 kts 287°
2026-04-24 19:39 52.31823 5.91826 35144 ft 408 kts 287°
2026-04-24 19:39 52.32773 5.87392 35454 ft 408 kts 287°
2026-04-24 19:40 52.33707 5.83017 35733 ft 407 kts 287°
2026-04-24 19:40 52.34635 5.78657 36004 ft 407 kts 287°
2026-04-24 19:40 52.35553 5.74333 36213 ft 407 kts 287°
2026-04-24 19:41 52.37407 5.65563 36276 ft 408 kts 287°
2026-04-24 19:41 52.39261 5.56781 36274 ft 408 kts 287°
2026-04-24 19:42 52.41111 5.47994 36274 ft 408 kts 287°
2026-04-24 19:42 52.42634 5.40693 36274 ft 407 kts 287°
2026-04-24 19:43 52.44465 5.31917 36275 ft 407 kts 287°
2026-04-24 19:43 52.46293 5.23131 36276 ft 407 kts 287°
2026-04-24 19:44 52.48102 5.14335 36277 ft 407 kts 286°
2026-04-24 19:44 52.49906 5.05537 36281 ft 407 kts 286°
2026-04-24 19:45 52.51711 4.96744 36284 ft 406 kts 286°
2026-04-24 19:45 52.53511 4.87942 36283 ft 406 kts 288°
2026-04-24 19:46 52.56181 4.79713 36282 ft 411 kts 298°
2026-04-24 19:46 52.59216 4.71747 36284 ft 410 kts 298°
2026-04-24 19:47 52.62230 4.63779 36283 ft 410 kts 298°
2026-04-24 19:47 52.65233 4.55793 36285 ft 410 kts 298°
2026-04-24 19:48 52.68240 4.47796 36287 ft 410 kts 298°
2026-04-24 19:48 52.72735 4.35788 36287 ft 410 kts 298°
2026-04-24 19:49 52.78705 4.19750 36287 ft 410 kts 298°
2026-04-24 19:50 52.84643 4.03712 36287 ft 410 kts 298°
2026-04-24 19:51 52.89097 3.91606 36289 ft 411 kts 298°
2026-04-24 19:52 52.93542 3.79458 36286 ft 412 kts 298°
2026-04-24 19:52 52.96655 3.71476 36285 ft 416 kts 306°
2026-04-24 19:53 53.01095 3.65209 36285 ft 427 kts 326°
2026-04-24 19:54 53.08901 3.57974 36279 ft 429 kts 326°
2026-04-24 19:54 53.14108 3.53093 36283 ft 430 kts 326°
2026-04-24 19:55 53.18441 3.49025 36283 ft 430 kts 327°
2026-04-24 19:55 53.24241 3.42730 36282 ft 425 kts 314°
2026-04-24 19:56 53.27919 3.35140 36270 ft 420 kts 300°
2026-04-24 19:56 53.31089 3.26919 36262 ft 421 kts 301°
2026-04-24 19:57 53.34267 3.18684 36270 ft 422 kts 301°
2026-04-24 19:57 53.37449 3.10417 36268 ft 423 kts 301°
2026-04-24 19:58 53.40625 3.02099 36259 ft 423 kts 301°
2026-04-24 19:58 53.43791 2.93766 36264 ft 424 kts 301°
2026-04-24 19:59 53.46963 2.85404 36263 ft 425 kts 301°
2026-04-24 19:59 53.50134 2.77022 36260 ft 425 kts 301°
2026-04-24 20:00 53.53301 2.68617 36262 ft 426 kts 301°
2026-04-24 20:00 53.56469 2.60181 36262 ft 427 kts 301°
2026-04-24 20:01 53.59637 2.51709 36267 ft 428 kts 301°
2026-04-24 20:01 53.62784 2.43263 36267 ft 429 kts 301°
2026-04-24 20:02 53.65440 2.36114 36269 ft 430 kts 301°
2026-04-24 20:02 53.69117 2.26160 36269 ft 430 kts 301°
2026-04-24 20:03 53.72279 2.17577 36273 ft 431 kts 301°
2026-04-24 20:03 53.75446 2.08970 36276 ft 432 kts 301°
2026-04-24 20:04 53.78610 2.00336 36280 ft 432 kts 301°
2026-04-24 20:04 53.81772 1.91685 36278 ft 433 kts 301°
2026-04-24 20:05 53.84933 1.83002 36288 ft 433 kts 301°
2026-04-24 20:05 53.88084 1.74308 36291 ft 433 kts 301°
2026-04-24 20:06 53.91233 1.65590 36287 ft 433 kts 301°
2026-04-24 20:06 53.94379 1.56858 36294 ft 433 kts 301°
2026-04-24 20:07 53.96990 1.49589 36287 ft 434 kts 302°
2026-04-24 20:07 54.00656 1.39356 36292 ft 434 kts 302°
2026-04-24 20:08 54.03778 1.30584 36291 ft 434 kts 302°
2026-04-24 20:08 54.06899 1.21790 36284 ft 434 kts 302°
2026-04-24 20:09 54.10014 1.12987 36290 ft 434 kts 302°
2026-04-24 20:09 54.13120 1.04173 36283 ft 434 kts 302°
2026-04-24 20:10 54.16209 0.95376 36278 ft 434 kts 302°
2026-04-24 20:10 54.19311 0.86518 36277 ft 434 kts 302°
2026-04-24 20:11 54.22411 0.77635 36277 ft 434 kts 302°
2026-04-24 20:11 54.25498 0.68746 36276 ft 434 kts 302°
2026-04-24 20:12 54.28580 0.59843 36280 ft 434 kts 302°
2026-04-24 20:12 54.31655 0.50934 36282 ft 434 kts 302°
2026-04-24 20:13 54.34719 0.42021 36279 ft 434 kts 302°
2026-04-24 20:13 54.37776 0.33086 36281 ft 434 kts 302°
2026-04-24 20:14 54.40829 0.24148 36279 ft 434 kts 302°
2026-04-24 20:14 54.43877 0.15193 36280 ft 434 kts 302°
2026-04-24 20:15 54.46911 0.06243 36283 ft 433 kts 302°
2026-04-24 20:15 54.49919 -0.02664 36282 ft 433 kts 302°
2026-04-24 20:16 54.52954 -0.11686 36283 ft 433 kts 302°
2026-04-24 20:16 54.55956 -0.20670 36281 ft 432 kts 302°
2026-04-24 20:17 54.58933 -0.29594 36279 ft 432 kts 302°
2026-04-24 20:17 54.63412 -0.43060 36278 ft 431 kts 302°
2026-04-24 20:18 54.66382 -0.52041 36278 ft 431 kts 301°
2026-04-24 20:18 54.69340 -0.61011 35628 ft 428 kts 301°
2026-04-24 20:19 54.70819 -0.65496 34868 ft 430 kts 302°
2026-04-24 20:19 54.72302 -0.70001 34076 ft 433 kts 301°
2026-04-24 20:19 54.73792 -0.74537 33151 ft 435 kts 301°
2026-04-24 20:19 54.75292 -0.79128 32195 ft 440 kts 301°
2026-04-24 20:20 54.76802 -0.83764 31220 ft 444 kts 301°
2026-04-24 20:20 54.78332 -0.88470 30208 ft 450 kts 301°
2026-04-24 20:20 54.79847 -0.93137 29645 ft 449 kts 301°
2026-04-24 20:20 54.81377 -0.97863 29380 ft 450 kts 301°
2026-04-24 20:21 54.82907 -1.02598 29090 ft 449 kts 301°
2026-04-24 20:21 54.84431 -1.07316 28808 ft 447 kts 301°
2026-04-24 20:21 54.85950 -1.12021 28529 ft 445 kts 301°
2026-04-24 20:21 54.87455 -1.16698 28260 ft 444 kts 300°
2026-04-24 20:22 54.88952 -1.21366 27981 ft 442 kts 300°
2026-04-24 20:22 54.90445 -1.26036 27714 ft 440 kts 300°
2026-04-24 20:22 54.91927 -1.30672 27460 ft 438 kts 300°
2026-04-24 20:22 54.93406 -1.35295 27190 ft 437 kts 300°
2026-04-24 20:23 54.94878 -1.39905 26927 ft 435 kts 300°
2026-04-24 20:23 54.96339 -1.44498 26673 ft 433 kts 300°
2026-04-24 20:23 54.97791 -1.49073 26414 ft 431 kts 300°
2026-04-24 20:23 54.99237 -1.53636 26216 ft 429 kts 300°
2026-04-24 20:24 55.00189 -1.56645 26230 ft 429 kts 300°
2026-04-24 20:24 55.02115 -1.62743 26245 ft 429 kts 300°
2026-04-24 20:24 55.03551 -1.67305 26255 ft 429 kts 299°
2026-04-24 20:24 55.04983 -1.71862 26247 ft 429 kts 299°
2026-04-24 20:25 55.06416 -1.76426 26240 ft 428 kts 299°
2026-04-24 20:25 55.07846 -1.80985 26240 ft 428 kts 299°
2026-04-24 20:25 55.09272 -1.85547 26232 ft 427 kts 299°
2026-04-24 20:25 55.10682 -1.90069 25711 ft 422 kts 299°
2026-04-24 20:26 55.12082 -1.94568 25092 ft 419 kts 299°
2026-04-24 20:26 55.13482 -1.98998 24500 ft 415 kts 300°
2026-04-24 20:26 55.14425 -2.01895 24112 ft 413 kts 300°
2026-04-24 20:26 55.15860 -2.06223 23458 ft 410 kts 301°
2026-04-24 20:27 55.17755 -2.11888 22621 ft 405 kts 301°
2026-04-24 20:27 55.19169 -2.16125 21997 ft 401 kts 300°
2026-04-24 20:27 55.20563 -2.20337 21417 ft 397 kts 300°
2026-04-24 20:27 55.21938 -2.24513 20844 ft 394 kts 300°
2026-04-24 20:28 55.22843 -2.27273 20476 ft 392 kts 300°
2026-04-24 20:28 55.24191 -2.31399 19928 ft 388 kts 300°
2026-04-24 20:28 55.25523 -2.35496 19388 ft 385 kts 299°
2026-04-24 20:28 55.26843 -2.39569 18873 ft 382 kts 299°
2026-04-24 20:29 55.28152 -2.43616 18350 ft 380 kts 299°
2026-04-24 20:29 55.29450 -2.47633 17793 ft 376 kts 299°
2026-04-24 20:29 55.30736 -2.51611 17256 ft 373 kts 299°
2026-04-24 20:29 55.32010 -2.55565 16745 ft 370 kts 299°
2026-04-24 20:30 55.33277 -2.59489 16331 ft 368 kts 300°
2026-04-24 20:30 55.34538 -2.63395 16241 ft 368 kts 300°
2026-04-24 20:30 55.35799 -2.67313 16255 ft 369 kts 300°
2026-04-24 20:30 55.37055 -2.71233 16256 ft 368 kts 299°
2026-04-24 20:31 55.38307 -2.75167 16254 ft 368 kts 299°
2026-04-24 20:31 55.39554 -2.79074 15914 ft 364 kts 300°
2026-04-24 20:31 55.40804 -2.82933 15430 ft 361 kts 300°
2026-04-24 20:31 55.42040 -2.86762 14940 ft 359 kts 300°
2026-04-24 20:32 55.43264 -2.90575 14467 ft 356 kts 300°
2026-04-24 20:32 55.44475 -2.94368 13986 ft 353 kts 300°
2026-04-24 20:32 55.45670 -2.98132 13473 ft 351 kts 300°
2026-04-24 20:32 55.46854 -3.01869 12949 ft 348 kts 300°
2026-04-24 20:33 55.48008 -3.05525 12430 ft 345 kts 300°
2026-04-24 20:33 55.49171 -3.09215 11900 ft 343 kts 300°
2026-04-24 20:33 55.50322 -3.12877 11386 ft 340 kts 300°
2026-04-24 20:33 55.51463 -3.16508 10868 ft 337 kts 300°
2026-04-24 20:34 55.52593 -3.20117 10385 ft 334 kts 300°
2026-04-24 20:34 55.53692 -3.23632 10250 ft 320 kts 300°
2026-04-24 20:34 55.54744 -3.27006 10138 ft 307 kts 300°
2026-04-24 20:34 55.55754 -3.30251 9996 ft 296 kts 300°
2026-04-24 20:35 55.56723 -3.33369 9860 ft 285 kts 300°
2026-04-24 20:35 55.57667 -3.36413 9581 ft 280 kts 300°
2026-04-24 20:35 55.58599 -3.39415 9224 ft 278 kts 300°
2026-04-24 20:35 55.59525 -3.42399 8842 ft 276 kts 300°
2026-04-24 20:36 55.60449 -3.45372 8463 ft 275 kts 300°
2026-04-24 20:36 55.61601 -3.48009 8093 ft 271 kts 321°
2026-04-24 20:36 55.63164 -3.49857 7690 ft 270 kts 329°
2026-04-24 20:36 55.64772 -3.51544 7432 ft 264 kts 329°
2026-04-24 20:37 55.66336 -3.53167 7163 ft 259 kts 329°
2026-04-24 20:37 55.67883 -3.54769 6814 ft 257 kts 329°
2026-04-24 20:37 55.69418 -3.56362 6445 ft 255 kts 329°
2026-04-24 20:37 55.70945 -3.57948 6151 ft 251 kts 329°
2026-04-24 20:38 55.72416 -3.59479 6014 ft 239 kts 329°
2026-04-24 20:38 55.73832 -3.60954 5779 ft 234 kts 329°
2026-04-24 20:38 55.75212 -3.62394 5611 ft 226 kts 329°
2026-04-24 20:38 55.76553 -3.63795 5357 ft 222 kts 329°
2026-04-24 20:39 55.77884 -3.65187 5047 ft 222 kts 329°
2026-04-24 20:39 55.79211 -3.66578 4728 ft 221 kts 329°
2026-04-24 20:39 55.80533 -3.67961 4433 ft 219 kts 329°
2026-04-24 20:39 55.81942 -3.68889 4169 ft 216 kts 357°
2026-04-24 20:40 55.83387 -3.68324 3975 ft 212 kts 25°
2026-04-24 20:40 55.84635 -3.66996 3777 ft 210 kts 41°
2026-04-24 20:40 55.85541 -3.64977 3519 ft 210 kts 58°
2026-04-24 20:40 55.86299 -3.62758 3234 ft 208 kts 58°
2026-04-24 20:41 55.87041 -3.60590 2959 ft 202 kts 58°
2026-04-24 20:41 55.87763 -3.58479 2726 ft 197 kts 58°
2026-04-24 20:41 55.88468 -3.56419 2441 ft 193 kts 58°
2026-04-24 20:41 55.89157 -3.54405 2179 ft 188 kts 58°
2026-04-24 20:42 55.89823 -3.52454 1931 ft 178 kts 58°
2026-04-24 20:42 55.90438 -3.50652 1715 ft 161 kts 58°
2026-04-24 20:42 55.90989 -3.49038 1484 ft 148 kts 58°
2026-04-24 20:42 55.91514 -3.47498 1291 ft 143 kts 58°
2026-04-24 20:43 55.92023 -3.46005 1098 ft 139 kts 58°
2026-04-24 20:43 55.92519 -3.44547 911 ft 136 kts 58°
2026-04-24 20:43 55.93002 -3.43127 728 ft 133 kts 59°
2026-04-24 20:43 55.93479 -3.41726 555 ft 131 kts 59°
2026-04-24 20:44 55.93948 -3.40346 375 ft 129 kts 59°
2026-04-24 20:44 55.94404 -3.39007 206 ft 124 kts 59°
2026-04-24 20:44 55.94836 -3.37736 114 ft 108 kts 59°
2026-04-24 20:44 55.95135 -3.36852 113 ft 58 kts 59°
2026-04-24 20:45 55.95252 -3.36507 111 ft 17 kts 60°
2026-04-24 20:45 55.95249 -3.36407 110 ft 8 kts 141°
2026-04-24 20:45 55.95220 -3.36377 114 ft 4 kts 151°
2026-04-24 20:45 55.95171 -3.36328 113 ft 6 kts 149°
2026-04-24 20:46 55.95166 -3.36322 113 ft 0 kts 148°
2026-04-24 20:46 55.95165 -3.36321 113 ft 2 kts 148°
2026-04-24 20:46 55.95125 -3.36323 115 ft 8 kts 212°
2026-04-24 20:46 55.95072 -3.36464 114 ft 17 kts 238°
2026-04-24 20:47 55.95012 -3.36641 111 ft 16 kts 238°
2026-04-24 20:47 55.94961 -3.36795 114 ft 12 kts 238°
2026-04-24 20:47 55.94899 -3.36806 115 ft 8 kts 149°
2026-04-24 20:47 55.94847 -3.36780 116 ft 7 kts 178°
2026-04-24 20:48 55.94799 -3.36778 116 ft 6 kts 177°
2026-04-24 20:48 55.94747 -3.36743 114 ft 9 kts 163°
2026-04-24 20:48 55.94705 -3.36721 112 ft 4 kts 131°
2026-04-24 20:48 55.94702 -3.36679 116 ft 6 kts 92°
2026-04-24 20:49 55.94702 -3.36630 116 ft 1 kts 89°
2026-04-24 20:49 55.94702 -3.36614 116 ft 1 kts 88°
2026-04-24 20:49 55.94702 -3.36603 116 ft 0 kts 89°